Weather History for Erzincan, Turkey

Change the Weather History Date:

Sunday, October 7, 2012

  Actual Average Record
Temperature  
Mean Temperature 58 °F -  
Max Temperature 71 °F 64 °F - ()
Min Temperature 45 °F 39 °F - ()
Degree Days  
Heating Degree Days 7    
Growing Degree Days 8 (Base 50)    
Moisture  
Dew Point 46 °F    
Average Humidity 65    
Maximum Humidity 94    
Minimum Humidity 26    
Precipitation  
Precipitation 0.03 in 0.05 in - ()
Sea Level Pressure  
Sea Level Pressure 30.12 in    
Wind  
Wind Speed 2 mph ()    
Max Wind Speed 10 mph    
Max Gust Speed -    
Visibility 6.4 miles    
Events Thunderstorm    
T = Trace of Precipitation, MM = Missing Value Source: Averaged Metar Reports

Daily Weather History Graph

Daily Weather History Graph

Search for Another Location

Airport:

Trip Planner

Search our weather history database for the weather conditions in past years. The results will help you decide how hot, cold, wet, or windy it might be!

Date:

Astronomy

Oct. 07, 2012 Rise Set
Actual Time 6:24 AM EEST 5:54 PM EEST
Civil Twilight 5:57 AM EEST 6:21 PM EEST
Nautical Twilight 5:25 AM EEST 6:52 PM EEST
Astronomical Twilight 4:54 AM EEST 7:23 PM EEST
Moon 10:46 PM EEST (10/7) 12:45 PM EEST (10/7)
Length of Visible Light 12h 24m
Length of Day
11h 30m
Waning Gibbous, 59% of the Moon is Illuminated
Oct 7
Waning Gibbous
Oct 8
Last Quarter
Oct 15
New
Oct 22
First Quarter
Oct 29
Full

Hourly Weather History & Observations

Time (EEST) Temp. Dew Point Humidity Pressure Visibility Wind Dir Wind Speed Gust Speed Precip Events Conditions
12:50 AM 50.0 °F 46.4 °F 87% 30.15 in 6.2 mi Calm Calm - N/A   Scattered Clouds
2:50 AM 50.0 °F 48.2 °F 94% 30.15 in 6.2 mi Calm Calm - N/A   Scattered Clouds
3:00 AM 49 °F 47 °F 92%  in 6 mi Calm Calm - -   Partly Cloudy
3:50 AM 50.0 °F 48.2 °F 94% 30.15 in 6.2 mi Calm Calm - N/A   Scattered Clouds
4:50 AM 48.2 °F 44.6 °F 87% 30.15 in 6.2 mi Calm Calm - N/A   Scattered Clouds
5:50 AM 48.2 °F 46.4 °F 93% 30.15 in 6.2 mi Calm Calm - N/A   Scattered Clouds
6:50 AM 48.2 °F 46.4 °F 93% 30.15 in 6.2 mi NE 3.5 mph - N/A   Partly Cloudy
7:50 AM 50.0 °F 48.2 °F 94% 30.18 in 6.2 mi SW 3.5 mph - N/A   Scattered Clouds
8:50 AM 55.4 °F 48.2 °F 77% 30.18 in 6.2 mi NW 3.5 mph - N/A   Scattered Clouds
9:00 AM 55 °F 48 °F 71%  in 6 mi NW 3.5 mph - -   Partly Cloudy
9:50 AM 59.0 °F 50.0 °F 72% 30.18 in 6.2 mi Variable 1.2 mph - N/A   Mostly Cloudy
10:50 AM 68.0 °F 48.2 °F 49% 30.18 in 6.2 mi Variable 2.3 mph - N/A   Mostly Cloudy
11:50 AM 68.0 °F 44.6 °F 43% 30.15 in 6.2 mi SW 4.6 mph - N/A   Mostly Cloudy
12:50 PM 69.8 °F 44.6 °F 40% 30.12 in 6.2 mi WSW 4.6 mph - N/A   Mostly Cloudy
1:50 PM 69.8 °F 44.6 °F 40% 30.09 in 6.2 mi NNW 3.5 mph - N/A   Mostly Cloudy
2:50 PM 69.8 °F 42.8 °F 38% 30.09 in 6.2 mi Variable 2.3 mph - N/A   Mostly Cloudy
3:00 PM 70 °F 43 °F 26%  in 6 mi West 2.3 mph - -   Partly Cloudy
3:50 PM 71.6 °F 42.8 °F 35% 30.09 in 6.2 mi ESE 6.9 mph - N/A   Mostly Cloudy
4:50 PM 71.6 °F 44.6 °F 38% 30.06 in 6.2 mi Variable 2.3 mph - N/A   Mostly Cloudy
5:50 PM 68.0 °F 46.4 °F 46% 30.06 in 6.2 mi SSW 5.8 mph - N/A   Mostly Cloudy
6:50 PM 62.6 °F 42.8 °F 48% 30.09 in 6.2 mi Variable 2.3 mph - N/A   Mostly Cloudy
7:50 PM 60.8 °F 44.6 °F 55% 30.09 in 6.2 mi Variable 1.2 mph - N/A   Mostly Cloudy
9:00 PM 59 °F 46 °F 51%  in 12 mi Calm Calm - -   Partly Cloudy
9:50 PM 55.4 °F 44.6 °F 67% 30.06 in 6.2 mi WNW 1.2 mph - N/A   Scattered Clouds
10:50 PM 55.4 °F 46.4 °F 72% 30.06 in 6.2 mi Variable 1.2 mph - N/A   Mostly Cloudy
11:50 PM 55.4 °F 48.2 °F 77% 30.09 in 6.2 mi ENE 10.4 mph - N/A Thunderstorm Thunderstorm